This demonstration page uses our WeatherBlox Daily Observations layout. Learn more.

Left ArrowRight Arrow

34.02893, -84.19858

Hourly Observations for November 30, 2019

Temp ( °F °C ) Dew Point ( °F °C ) Humidity (%) Winds ( mph kmh ) Pressure ( in mb ) Visibility ( mi km ) Precip ( " mm )
12:29 am 00:29 Mostly Cloudy 49 9.4 42 5.6 77 77 Calm 30.09 1019 10 16 0.00 0.00
12:53 am 00:53 Cloudy 51 10.6 44 6.7 77 77 Calm 30.08 1019 10 16 0.00 0.00
1:53 am 01:53 Cloudy 52 11.1 44 6.7 75 75 Calm 30.05 1018 10 16 0.00 0.00
2:42 am 02:42 Partly Cloudy 50 10 43 6.1 77 77 Calm 30.05 1018 10 16 0.00 0.00
2:53 am 02:53 Clear 49 9.4 43 6.1 80 80 Calm 30.03 1017 10 16 0.00 0.00
3:30 am 03:30 Mostly Cloudy 50 10 43 6.1 77 77 Calm 30.04 1017 10 16 0.00 0.00
3:53 am 03:53 Mostly Cloudy 50 10 45 7.2 83 83 Calm 30.02 1017 10 16 0.00 0.00
4:07 am 04:07 Partly Cloudy 49 9.4 44 6.7 83 83 Calm 30.03 1017 10 16 0.00 0.00
4:53 am 04:53 Mostly Cloudy 49 9.4 44 6.7 83 83 Calm 30.01 1016 10 16 0.00 0.00
5:53 am 05:53 Partly Cloudy 46 7.8 43 6.1 89 89 Calm 30.02 1017 10 16 0.00 0.00
6:53 am 06:53 Cloudy 50 10 46 7.8 86 86 Calm 30.02 1017 10 16 0.00 0.00
7:53 am 07:53 Cloudy 50 10 46 7.8 86 86 Calm 30.03 1017 10 16 0.00 0.00
8:53 am 08:53 Cloudy 56 13.3 47 8.3 72 72 Calm 30.03 1017 10 16 0.00 0.00
9:53 am 09:53 Cloudy 58 14.4 45 7.2 62 62 SSW 7 11 30.02 1017 10 16 0.00 0.00
10:53 am 10:53 Cloudy 60 15.6 42 5.6 52 52 WSW 5 7 30.02 1017 10 16 0.00 0.00
1:53 pm 13:53 Cloudy 69 20.6 44 6.7 41 41 SSW 9 15 29.88 1012 10 16 0.00 0.00
2:53 pm 14:53 Cloudy 73 22.8 49 9.4 43 43 SSW 13 20 29.85 1011 10 16 0.00 0.00
3:53 pm 15:53 Cloudy 71 21.7 50 10 47 47 SW 10 17 29.84 1011 10 16 0.00 0.00
4:53 pm 16:53 Cloudy 69 20.6 50 10 51 51 SW 9 15 29.84 1011 10 16 0.00 0.00
5:53 pm 17:53 Cloudy 67 19.4 51 10.6 57 57 SW 5 7 29.85 1011 10 16 0.00 0.00
6:53 pm 18:53 Cloudy 67 19.4 51 10.6 57 57 SSE 5 7 29.84 1010 10 16 0.00 0.00
7:53 pm 19:53 Mostly Cloudy 66 18.9 52 11.1 61 61 SSE 6 9 29.83 1010 10 16 0.00 0.00
8:53 pm 20:53 Cloudy 66 18.9 52 11.1 61 61 S 7 11 29.81 1010 10 16 0.00 0.00
9:53 pm 21:53 Cloudy 65 18.3 53 11.7 66 66 S 8 13 29.80 1009 10 16 0.00 0.00
10:53 pm 22:53 Mostly Clear 64 17.8 53 11.7 68 68 S 8 13 29.78 1009 10 16 0.00 0.00
11:53 pm 23:53 Clear 64 17.8 53 11.7 68 68 S 8 13 29.75 1008 10 16 0.00 0.00

Powered by AerisWeather